Time,TemperatureF,DewpointF,PressureIn,WindDirection,WindDirectionDegrees,WindSpeedMPH,WindSpeedGustMPH,Humidity,HourlyPrecipIn,Conditions,Clouds,dailyrainin,SoftwareType,DateUTC
2013-07-15 00:00:00,63.3,7.9,28.35,North,357,0.0,0.0,11,0.00,,---,0.00,VWS V14.01,2013-07-15 07:00:00,
2013-07-15 00:06:00,63.9,12.1,28.35,North,353,0.0,0.0,13,0.00,,---,0.00,VWS V14.01,2013-07-15 07:06:00,
2013-07-15 00:11:00,63.7,11.9,28.35,NNW,336,0.0,0.0,13,0.00,,---,0.00,VWS V14.01,2013-07-15 07:11:00,
2013-07-15 00:16:00,63.7,11.9,28.35,NNW,336,0.0,0.0,13,0.00,,---,0.00,VWS V14.01,2013-07-15 07:16:00,
2013-07-15 00:22:00,63.1,11.5,28.35,NNW,336,0.0,0.0,13,0.00,,---,0.00,VWS V14.01,2013-07-15 07:22:00,
2013-07-15 00:27:00,62.6,11.1,28.35,NNW,336,0.0,0.0,13,0.00,,---,0.00,VWS V14.01,2013-07-15 07:27:00,
2013-07-15 00:32:00,62.4,12.6,28.35,NNW,336,0.0,0.0,14,0.00,,---,0.00,VWS V14.01,2013-07-15 07:32:00,
2013-07-15 00:38:00,62.1,12.3,28.35,NNW,336,0.0,0.0,14,0.00,,---,0.00,VWS V14.01,2013-07-15 07:38:00,
2013-07-15 00:43:00,62.1,12.3,28.35,NNW,336,0.0,0.0,14,0.00,,---,0.00,VWS V14.01,2013-07-15 07:43:00,
2013-07-15 00:48:00,61.5,11.9,28.35,NNW,336,0.0,0.0,14,0.00,,---,0.00,VWS V14.01,2013-07-15 07:48:00,
2013-07-15 00:54:00,60.6,11.2,28.35,NNW,336,0.0,0.0,14,0.00,,---,0.00,VWS V14.01,2013-07-15 07:54:00,
2013-07-15 00:59:00,60.3,10.9,28.35,NNW,336,0.0,0.0,14,0.00,,---,0.00,VWS V14.01,2013-07-15 07:59:00,
2013-07-15 01:04:00,59.4,14.6,28.35,NNW,336,0.0,0.0,17,0.00,,---,0.00,VWS V14.01,2013-07-15 08:04:00,
2013-07-15 01:09:00,59.4,14.6,28.32,NNW,336,0.0,0.0,17,0.00,,---,0.00,VWS V14.01,2013-07-15 08:09:00,
2013-07-15 01:15:00,58.8,20.1,28.32,NNW,336,0.0,0.0,22,0.00,,---,0.00,VWS V14.01,2013-07-15 08:15:00,
2013-07-15 01:20:00,58.5,19.8,28.32,NNW,336,0.0,0.0,22,0.00,,---,0.00,VWS V14.01,2013-07-15 08:20:00,
2013-07-15 01:25:00,58.5,19.8,28.32,NNW,336,0.0,0.0,22,0.00,,---,0.00,VWS V14.01,2013-07-15 08:25:00,
2013-07-15 01:30:00,57.6,21.1,28.32,NNW,336,0.0,0.0,24,0.00,,---,0.00,VWS V14.01,2013-07-15 08:30:00,
2013-07-15 01:35:00,57.2,20.8,28.32,NNW,336,0.0,0.0,24,0.00,,---,0.00,VWS V14.01,2013-07-15 08:35:00,
2013-07-15 01:40:00,57.7,21.2,28.32,NNW,336,0.0,0.0,24,0.00,,---,0.00,VWS V14.01,2013-07-15 08:40:00,
2013-07-15 01:45:00,58.3,21.7,28.32,NNW,336,0.0,0.0,24,0.00,,---,0.00,VWS V14.01,2013-07-15 08:45:00,
2013-07-15 01:50:00,58.3,21.7,28.32,NNW,336,0.0,0.0,24,0.00,,---,0.00,VWS V14.01,2013-07-15 08:50:00,
2013-07-15 01:56:00,59.2,20.4,28.32,NNW,336,0.0,0.0,22,0.00,,---,0.00,VWS V14.01,2013-07-15 08:56:00,
2013-07-15 02:01:00,59.4,20.5,28.32,NNW,336,0.0,0.0,22,0.00,,---,0.00,VWS V14.01,2013-07-15 09:01:00,
2013-07-15 02:06:00,59.4,20.5,28.32,NNW,336,0.0,0.0,22,0.00,,---,0.00,VWS V14.01,2013-07-15 09:06:00,
2013-07-15 02:11:00,59.2,20.4,28.32,NNW,336,0.0,0.0,22,0.00,,---,0.00,VWS V14.01,2013-07-15 09:11:00,
2013-07-15 02:17:00,59.2,20.4,28.32,NNW,336,0.0,0.0,22,0.00,,---,0.00,VWS V14.01,2013-07-15 09:17:00,
2013-07-15 02:22:00,59.0,20.2,28.32,NNW,336,0.0,0.0,22,0.00,,---,0.00,VWS V14.01,2013-07-15 09:22:00,
2013-07-15 02:27:00,59.7,14.9,28.32,ENE,71,0.0,3.6,17,0.00,,---,0.00,VWS V14.01,2013-07-15 09:27:00,
2013-07-15 02:32:00,59.9,15.0,28.32,ENE,73,0.0,0.0,17,0.00,,---,0.00,VWS V14.01,2013-07-15 09:32:00,
2013-07-15 02:38:00,59.9,15.0,28.32,ENE,77,0.0,0.0,17,0.00,,---,0.00,VWS V14.01,2013-07-15 09:38:00,
2013-07-15 02:43:00,59.9,15.0,28.32,East,101,0.0,0.0,17,0.00,,---,0.00,VWS V14.01,2013-07-15 09:43:00,
2013-07-15 02:48:00,59.9,15.0,28.32,NE,56,0.0,0.0,17,0.00,,---,0.00,VWS V14.01,2013-07-15 09:48:00,
2013-07-15 02:53:00,59.4,14.6,28.32,ENE,58,0.0,0.0,17,0.00,,---,0.00,VWS V14.01,2013-07-15 09:53:00,
2013-07-15 02:59:00,59.4,14.6,28.32,NE,38,0.0,0.0,17,0.00,,---,0.00,VWS V14.01,2013-07-15 09:59:00,
2013-07-15 03:04:00,59.4,14.6,28.32,NE,38,0.0,0.0,17,0.00,,---,0.00,VWS V14.01,2013-07-15 10:04:00,
2013-07-15 03:09:00,59.0,14.3,28.32,SSE,147,0.0,0.0,17,0.00,,---,0.00,VWS V14.01,2013-07-15 10:09:00,
2013-07-15 03:14:00,59.2,14.4,28.32,East,99,0.0,0.0,17,0.00,,---,0.00,VWS V14.01,2013-07-15 10:14:00,
2013-07-15 03:20:00,58.8,14.1,28.32,ENE,75,0.0,0.0,17,0.00,,---,0.00,VWS V14.01,2013-07-15 10:20:00,
2013-07-15 03:25:00,58.8,14.1,28.32,ENE,75,0.0,0.0,17,0.00,,---,0.00,VWS V14.01,2013-07-15 10:25:00,
2013-07-15 03:30:00,58.8,14.1,28.32,ENE,75,0.0,0.0,17,0.00,,---,0.00,VWS V14.01,2013-07-15 10:30:00,
2013-07-15 03:35:00,58.8,14.1,28.32,ENE,75,0.0,0.0,17,0.00,,---,0.00,VWS V14.01,2013-07-15 10:35:00,
2013-07-15 03:41:00,58.3,16.2,28.32,ENE,75,0.0,0.0,19,0.00,,---,0.00,VWS V14.01,2013-07-15 10:41:00,
2013-07-15 03:46:00,56.7,18.3,28.32,East,83,0.0,0.0,22,0.00,,---,0.00,VWS V14.01,2013-07-15 10:46:00,
2013-07-15 03:51:00,56.7,18.3,28.32,East,83,0.0,0.0,22,0.00,,---,0.00,VWS V14.01,2013-07-15 10:51:00,
2013-07-15 03:56:00,56.7,18.3,28.32,East,83,0.0,0.0,22,0.00,,---,0.00,VWS V14.01,2013-07-15 10:56:00,
2013-07-15 04:02:00,56.7,18.3,28.32,East,83,0.0,0.0,22,0.00,,---,0.00,VWS V14.01,2013-07-15 11:02:00,
2013-07-15 04:07:00,56.7,18.3,28.32,East,89,0.0,0.0,22,0.00,,---,0.00,VWS V14.01,2013-07-15 11:07:00,
2013-07-15 04:12:00,56.3,18.0,28.32,East,89,0.0,0.0,22,0.00,,---,0.00,VWS V14.01,2013-07-15 11:12:00,
2013-07-15 04:17:00,56.3,18.0,28.32,East,89,0.0,0.0,22,0.00,,---,0.00,VWS V14.01,2013-07-15 11:17:00,
2013-07-15 04:23:00,56.5,21.1,28.32,East,89,0.0,0.0,25,0.00,,---,0.00,VWS V14.01,2013-07-15 11:23:00,
2013-07-15 04:28:00,56.3,21.0,28.32,East,88,0.0,0.0,25,0.00,,---,0.00,VWS V14.01,2013-07-15 11:28:00,
2013-07-15 04:33:00,56.3,21.0,28.32,East,88,0.0,0.0,25,0.00,,---,0.00,VWS V14.01,2013-07-15 11:33:00,
2013-07-15 04:38:00,55.4,21.1,28.32,East,88,0.0,0.0,26,0.00,,---,0.00,VWS V14.01,2013-07-15 11:38:00,
2013-07-15 04:44:00,55.4,21.1,28.32,East,88,0.0,0.0,26,0.00,,---,0.00,VWS V14.01,2013-07-15 11:44:00,
2013-07-15 04:49:00,54.1,22.6,28.32,East,88,0.0,0.0,29,0.00,,---,0.00,VWS V14.01,2013-07-15 11:49:00,
2013-07-15 04:54:00,53.6,22.9,28.32,East,88,0.0,0.0,30,0.00,,---,0.00,VWS V14.01,2013-07-15 11:54:00,
2013-07-15 04:59:00,53.6,22.9,28.32,East,88,0.0,0.0,30,0.00,,---,0.00,VWS V14.01,2013-07-15 11:59:00,
2013-07-15 05:05:00,52.9,23.1,28.32,East,88,0.0,0.0,31,0.00,,---,0.00,VWS V14.01,2013-07-15 12:05:00,
2013-07-15 05:10:00,53.1,26.8,28.32,East,88,0.0,0.0,36,0.00,,---,0.00,VWS V14.01,2013-07-15 12:10:00,
2013-07-15 05:15:00,53.1,26.8,28.32,SSW,193,3.1,3.1,36,0.00,,---,0.00,VWS V14.01,2013-07-15 12:15:00,
2013-07-15 05:20:00,52.7,25.8,28.32,SSW,195,0.0,0.0,35,0.00,,---,0.00,VWS V14.01,2013-07-15 12:20:00,
2013-07-15 05:26:00,52.7,26.5,28.29,SSW,195,0.0,0.0,36,0.00,,---,0.00,VWS V14.01,2013-07-15 12:26:00,
2013-07-15 05:31:00,52.7,26.5,28.29,SE,145,0.0,0.0,36,0.00,,---,0.00,VWS V14.01,2013-07-15 12:31:00,
2013-07-15 05:36:00,53.6,22.9,28.29,East,96,0.0,0.0,30,0.00,,---,0.00,VWS V14.01,2013-07-15 12:36:00,
2013-07-15 05:42:00,53.6,22.9,28.32,East,96,0.0,0.0,30,0.00,,---,0.00,VWS V14.01,2013-07-15 12:42:00,
2013-07-15 05:47:00,54.9,22.4,28.32,East,96,0.0,0.0,28,0.00,,---,0.00,VWS V14.01,2013-07-15 12:47:00,
2013-07-15 05:52:00,55.4,21.1,28.32,East,96,0.0,0.0,26,0.00,,---,0.00,VWS V14.01,2013-07-15 12:52:00,
2013-07-15 05:57:00,56.1,20.8,28.32,East,96,0.0,0.0,25,0.00,,---,0.00,VWS V14.01,2013-07-15 12:57:00,
2013-07-15 06:03:00,56.1,20.8,28.32,East,95,0.0,0.0,25,0.00,,---,0.00,VWS V14.01,2013-07-15 13:03:00,
2013-07-15 06:08:00,56.1,20.8,28.32,East,101,0.0,0.0,25,0.00,,---,0.00,VWS V14.01,2013-07-15 13:08:00,
2013-07-15 06:13:00,57.0,21.6,28.32,ESE,113,0.0,0.0,25,0.00,,---,0.00,VWS V14.01,2013-07-15 13:13:00,
2013-07-15 06:18:00,57.0,21.6,28.32,East,101,3.1,3.1,25,0.00,,---,0.00,VWS V14.01,2013-07-15 13:18:00,
2013-07-15 06:24:00,57.0,21.6,28.32,NE,40,0.0,3.1,25,0.00,,---,0.00,VWS V14.01,2013-07-15 13:24:00,
2013-07-15 06:29:00,57.0,21.6,28.32,NE,39,0.0,0.0,25,0.00,,---,0.00,VWS V14.01,2013-07-15 13:29:00,
2013-07-15 06:34:00,57.7,21.2,28.32,ENE,64,0.0,0.0,24,0.00,,---,0.00,VWS V14.01,2013-07-15 13:34:00,
2013-07-15 06:39:00,57.9,22.3,28.32,NNE,30,0.0,0.0,25,0.00,,---,0.00,VWS V14.01,2013-07-15 13:39:00,
2013-07-15 06:45:00,57.7,21.2,28.32,East,91,0.0,0.0,24,0.00,,---,0.00,VWS V14.01,2013-07-15 13:45:00,
2013-07-15 06:50:00,57.9,21.4,28.32,ESE,105,0.0,0.0,24,0.00,,---,0.00,VWS V14.01,2013-07-15 13:50:00,
2013-07-15 06:55:00,57.9,21.4,28.32,ESE,105,0.0,0.0,24,0.00,,---,0.00,VWS V14.01,2013-07-15 13:55:00,
2013-07-15 07:00:00,58.6,22.9,28.29,ESE,105,0.0,0.0,25,0.00,,---,0.00,VWS V14.01,2013-07-15 14:00:00,
2013-07-15 07:06:00,58.6,22.9,28.29,ESE,105,0.0,0.0,25,0.00,,---,0.00,VWS V14.01,2013-07-15 14:06:00,
2013-07-15 07:11:00,59.0,22.3,28.29,NE,50,0.0,0.0,24,0.00,,---,0.00,VWS V14.01,2013-07-15 14:11:00,
2013-07-15 07:16:00,59.0,22.3,28.32,NE,48,0.0,0.0,24,0.00,,---,0.00,VWS V14.01,2013-07-15 14:16:00,
2013-07-15 07:21:00,59.0,22.3,28.32,NE,48,0.0,0.0,24,0.00,,---,0.00,VWS V14.01,2013-07-15 14:21:00,
2013-07-15 07:27:00,59.7,22.9,28.32,NNE,12,0.0,0.0,24,0.00,,---,0.00,VWS V14.01,2013-07-15 14:27:00,
2013-07-15 07:32:00,59.9,23.0,28.32,NNE,16,0.0,0.0,24,0.00,,---,0.00,VWS V14.01,2013-07-15 14:32:00,
2013-07-15 07:37:00,60.6,23.6,28.32,ESE,116,3.1,3.1,24,0.00,,---,0.00,VWS V14.01,2013-07-15 14:37:00,
2013-07-15 07:42:00,60.6,23.6,28.32,NE,51,0.0,0.0,24,0.00,,---,0.00,VWS V14.01,2013-07-15 14:42:00,
2013-07-15 07:48:00,60.6,23.6,28.32,NE,51,0.0,0.0,24,0.00,,---,0.00,VWS V14.01,2013-07-15 14:48:00,
2013-07-15 07:53:00,61.9,19.2,28.32,North,0,0.0,0.0,19,0.00,,---,0.00,VWS V14.01,2013-07-15 14:53:00,
2013-07-15 08:00:00,61.9,19.2,28.32,East,92,0.0,0.0,19,0.00,,---,0.00,VWS V14.01,2013-07-15 15:00:00,
2013-07-15 08:05:00,62.6,18.5,28.32,NNE,33,0.0,0.0,18,0.00,,---,0.00,VWS V14.01,2013-07-15 15:05:00,
2013-07-15 08:10:00,62.6,18.5,28.29,NNE,15,0.0,0.0,18,0.00,,---,0.00,VWS V14.01,2013-07-15 15:10:00,
2013-07-15 08:16:00,63.3,16.4,28.29,North,6,0.0,0.0,16,0.00,,---,0.00,VWS V14.01,2013-07-15 15:16:00,
2013-07-15 08:22:00,63.5,16.5,28.29,ENE,78,0.0,0.0,16,0.00,,---,0.00,VWS V14.01,2013-07-15 15:22:00,
2013-07-15 08:27:00,65.3,16.5,28.32,ESE,103,0.0,0.0,15,0.00,,---,0.00,VWS V14.01,2013-07-15 15:27:00,
2013-07-15 08:32:00,65.5,16.6,28.32,ENE,65,0.0,0.0,15,0.00,,---,0.00,VWS V14.01,2013-07-15 15:32:00,
2013-07-15 08:38:00,65.5,16.6,28.32,North,3,0.0,0.0,15,0.00,,---,0.00,VWS V14.01,2013-07-15 15:38:00,
2013-07-15 08:43:00,66.4,17.4,28.32,NE,54,0.0,0.0,15,0.00,,---,0.00,VWS V14.01,2013-07-15 15:43:00,
2013-07-15 08:49:00,66.6,17.5,28.32,NNE,21,0.0,0.0,15,0.00,,---,0.00,VWS V14.01,2013-07-15 15:49:00,
2013-07-15 08:54:00,67.1,17.9,28.32,ENE,68,0.0,0.0,15,0.00,,---,0.00,VWS V14.01,2013-07-15 15:54:00,
2013-07-15 08:59:00,67.1,17.9,28.32,North,7,0.0,0.0,15,0.00,,---,0.00,VWS V14.01,2013-07-15 15:59:00,
2013-07-15 09:05:00,66.9,17.8,28.32,NNE,20,0.0,0.0,15,0.00,,---,0.00,VWS V14.01,2013-07-15 16:05:00,
2013-07-15 09:10:00,66.7,20.6,28.32,North,353,0.0,2.7,17,0.00,,---,0.00,VWS V14.01,2013-07-15 16:10:00,
2013-07-15 09:16:00,66.7,20.6,28.32,North,7,2.2,2.2,17,0.00,,---,0.00,VWS V14.01,2013-07-15 16:16:00,
2013-07-15 09:21:00,66.9,17.8,28.32,NNW,339,2.2,2.2,15,0.00,,---,0.00,VWS V14.01,2013-07-15 16:21:00,
2013-07-15 09:27:00,67.5,18.2,28.32,NNW,339,0.0,2.7,15,0.00,,---,0.00,VWS V14.01,2013-07-15 16:27:00,
2013-07-15 09:33:00,67.5,18.2,28.32,North,357,0.0,0.0,15,0.00,,---,0.00,VWS V14.01,2013-07-15 16:33:00,
2013-07-15 09:38:00,69.8,14.9,28.32,SE,145,0.0,0.0,12,0.00,,---,0.00,VWS V14.01,2013-07-15 16:38:00,
2013-07-15 09:43:00,70.5,15.5,28.32,SW,215,0.0,0.0,12,0.00,,---,0.00,VWS V14.01,2013-07-15 16:43:00,
2013-07-15 09:50:00,71.6,14.4,28.32,South,180,2.7,2.7,11,0.00,,---,0.00,VWS V14.01,2013-07-15 16:50:00,
2013-07-15 09:55:00,72.1,14.8,28.32,WNW,288,2.2,2.2,11,0.00,,---,0.00,VWS V14.01,2013-07-15 16:55:00,
2013-07-15 10:01:00,72.1,14.8,28.32,North,357,0.0,0.0,11,0.00,,---,0.00,VWS V14.01,2013-07-15 17:01:00,
2013-07-15 10:07:00,72.5,15.0,28.32,North,0,0.0,0.0,11,0.00,,---,0.00,VWS V14.01,2013-07-15 17:07:00,
2013-07-15 10:13:00,72.3,14.9,28.32,WNW,286,0.0,3.6,11,0.00,,---,0.00,VWS V14.01,2013-07-15 17:13:00,
2013-07-15 10:18:00,72.3,14.9,28.32,South,187,2.7,2.7,11,0.00,,---,0.00,VWS V14.01,2013-07-15 17:18:00,
2013-07-15 10:24:00,72.9,15.3,28.29,South,186,0.0,2.7,11,0.00,,---,0.00,VWS V14.01,2013-07-15 17:24:00,
2013-07-15 10:29:00,73.6,15.9,28.29,SW,226,0.0,0.0,11,0.00,,---,0.00,VWS V14.01,2013-07-15 17:29:00,
2013-07-15 10:34:00,73.6,15.9,28.29,SE,145,0.0,2.7,11,0.00,,---,0.00,VWS V14.01,2013-07-15 17:34:00,
2013-07-15 10:39:00,73.9,16.1,28.29,South,190,0.0,0.0,11,0.00,,---,0.00,VWS V14.01,2013-07-15 17:39:00,
2013-07-15 10:45:00,73.2,15.6,28.29,SSE,161,0.0,0.0,11,0.00,,---,0.00,VWS V14.01,2013-07-15 17:45:00,
2013-07-15 10:50:00,73.6,15.9,28.29,NW,313,2.2,2.2,11,0.00,,---,0.00,VWS V14.01,2013-07-15 17:50:00,
2013-07-15 10:58:00,74.1,16.3,28.29,NW,311,0.0,3.6,11,0.00,,---,0.00,VWS V14.01,2013-07-15 17:58:00,
2013-07-15 11:03:00,75.2,14.9,28.29,West,281,0.0,0.0,10,0.00,,---,0.00,VWS V14.01,2013-07-15 18:03:00,
2013-07-15 11:09:00,75.0,17.0,28.29,SE,137,0.0,0.0,11,0.00,,---,0.00,VWS V14.01,2013-07-15 18:09:00,
2013-07-15 11:14:00,76.8,16.2,28.29,South,185,3.6,4.0,10,0.00,,---,0.00,VWS V14.01,2013-07-15 18:14:00,
2013-07-15 11:19:00,78.1,17.1,28.29,South,170,2.7,3.1,10,0.00,,---,0.00,VWS V14.01,2013-07-15 18:19:00,
2013-07-15 11:24:00,78.8,17.7,28.29,South,190,2.7,2.7,10,0.00,,---,0.00,VWS V14.01,2013-07-15 18:24:00,
2013-07-15 11:30:00,79.5,18.2,28.29,WSW,243,2.7,2.7,10,0.00,,---,0.00,VWS V14.01,2013-07-15 18:30:00,
2013-07-15 11:35:00,79.5,18.2,28.29,WSW,243,2.7,2.7,10,0.00,,---,0.00,VWS V14.01,2013-07-15 18:35:00,
2013-07-15 11:40:00,78.8,17.7,28.29,NNW,343,0.0,3.6,10,0.00,,---,0.00,VWS V14.01,2013-07-15 18:40:00,
2013-07-15 11:46:00,79.5,18.2,28.29,NNE,27,2.7,2.7,10,0.00,,---,0.00,VWS V14.01,2013-07-15 18:46:00,
2013-07-15 11:51:00,79.2,18.0,28.29,SSW,200,0.0,0.0,10,0.00,,---,0.00,VWS V14.01,2013-07-15 18:51:00,
2013-07-15 11:57:00,78.6,17.5,28.29,South,169,2.2,4.0,10,0.00,,---,0.00,VWS V14.01,2013-07-15 18:57:00,
2013-07-15 12:02:00,79.7,18.4,28.29,WSW,252,3.6,3.6,10,0.00,,---,0.00,VWS V14.01,2013-07-15 19:02:00,
2013-07-15 12:08:00,79.9,18.5,28.29,SSW,211,3.1,5.4,10,0.00,,---,0.00,VWS V14.01,2013-07-15 19:08:00,
2013-07-15 12:14:00,80.4,18.9,28.29,SW,227,0.0,0.0,10,0.00,,---,0.00,VWS V14.01,2013-07-15 19:14:00,
2013-07-15 12:19:00,80.4,18.9,28.29,South,170,4.0,5.4,10,0.00,,---,0.00,VWS V14.01,2013-07-15 19:19:00,
2013-07-15 12:25:00,81.0,16.9,28.29,SW,219,2.2,3.6,9,0.00,,---,0.00,VWS V14.01,2013-07-15 19:25:00,
2013-07-15 12:30:00,80.6,16.6,28.29,South,181,4.9,4.9,9,0.00,,---,0.00,VWS V14.01,2013-07-15 19:30:00,
2013-07-15 12:35:00,81.3,17.1,28.29,SSW,202,4.0,4.0,9,0.00,,---,0.00,VWS V14.01,2013-07-15 19:35:00,
2013-07-15 12:41:00,82.0,17.7,28.26,South,190,0.0,0.0,9,0.00,,---,0.00,VWS V14.01,2013-07-15 19:41:00,
2013-07-15 12:46:00,82.8,18.2,28.26,South,189,5.4,5.4,9,0.00,,---,0.00,VWS V14.01,2013-07-15 19:46:00,
2013-07-15 12:51:00,82.8,18.2,28.26,SW,226,0.0,3.6,9,0.00,,---,0.00,VWS V14.01,2013-07-15 19:51:00,
2013-07-15 12:57:00,83.3,18.6,28.26,WSW,250,2.7,3.1,9,0.00,,---,0.00,VWS V14.01,2013-07-15 19:57:00,
2013-07-15 13:02:00,83.1,18.5,28.26,WSW,249,0.0,0.0,9,0.00,,---,0.00,VWS V14.01,2013-07-15 20:02:00,
2013-07-15 13:07:00,83.1,18.5,28.26,SSW,205,2.2,4.5,9,0.00,,---,0.00,VWS V14.01,2013-07-15 20:07:00,
2013-07-15 13:13:00,84.4,16.7,28.26,WSW,246,0.0,0.0,8,0.00,,---,0.00,VWS V14.01,2013-07-15 20:13:00,
2013-07-15 13:18:00,84.2,16.6,28.26,SSW,195,0.0,2.2,8,0.00,,---,0.00,VWS V14.01,2013-07-15 20:18:00,
2013-07-15 13:24:00,84.4,16.7,28.26,SW,230,2.7,2.7,8,0.00,,---,0.00,VWS V14.01,2013-07-15 20:24:00,
2013-07-15 13:30:00,84.4,16.7,28.26,West,271,0.0,3.1,8,0.00,,---,0.00,VWS V14.01,2013-07-15 20:30:00,
2013-07-15 13:35:00,84.4,16.7,28.26,SSE,163,2.7,2.7,8,0.00,,---,0.00,VWS V14.01,2013-07-15 20:35:00,
2013-07-15 13:41:00,84.9,17.1,28.26,WNW,284,2.2,2.2,8,0.00,,---,0.00,VWS V14.01,2013-07-15 20:41:00,
2013-07-15 13:46:00,82.4,18.0,28.26,WSW,238,0.0,0.0,9,0.00,,---,0.00,VWS V14.01,2013-07-15 20:46:00,
2013-07-15 13:51:00,83.3,18.6,28.26,SW,218,0.0,0.0,9,0.00,,---,0.00,VWS V14.01,2013-07-15 20:51:00,
2013-07-15 13:57:00,83.3,18.6,28.26,NW,314,5.4,5.4,9,0.00,,---,0.00,VWS V14.01,2013-07-15 20:57:00,
2013-07-15 14:02:00,82.6,18.1,28.26,NW,313,0.0,0.0,9,0.00,,---,0.00,VWS V14.01,2013-07-15 21:02:00,
2013-07-15 14:08:00,82.9,18.4,28.26,NNW,339,0.0,0.0,9,0.00,,---,0.00,VWS V14.01,2013-07-15 21:08:00,
2013-07-15 14:13:00,82.8,18.2,28.26,WNW,297,2.7,3.6,9,0.00,,---,0.00,VWS V14.01,2013-07-15 21:13:00,
2013-07-15 14:18:00,82.4,18.0,28.26,NNE,23,3.1,5.4,9,0.00,,---,0.00,VWS V14.01,2013-07-15 21:18:00,
2013-07-15 14:24:00,82.4,18.0,28.26,ESE,120,4.9,4.9,9,0.00,,---,0.00,VWS V14.01,2013-07-15 21:24:00,
2013-07-15 14:29:00,81.7,17.4,28.26,North,6,3.1,3.1,9,0.00,,---,0.00,VWS V14.01,2013-07-15 21:29:00,
2013-07-15 14:35:00,80.6,16.6,28.26,North,357,5.4,5.4,9,0.00,,---,0.00,VWS V14.01,2013-07-15 21:35:00,
2013-07-15 14:42:00,81.5,17.3,28.23,West,280,0.0,3.6,9,0.00,,---,0.00,VWS V14.01,2013-07-15 21:42:00,
2013-07-15 14:49:00,81.5,17.3,28.23,SSE,168,0.0,0.0,9,0.00,,---,0.00,VWS V14.01,2013-07-15 21:49:00,
2013-07-15 14:54:00,82.4,18.0,28.23,SW,235,0.0,3.6,9,0.00,,---,0.00,VWS V14.01,2013-07-15 21:54:00,
2013-07-15 15:00:00,82.6,18.1,28.23,WNW,297,4.0,4.0,9,0.00,,---,0.00,VWS V14.01,2013-07-15 22:00:00,
2013-07-15 15:05:00,82.8,18.2,28.23,ENE,76,3.6,3.6,9,0.00,,---,0.00,VWS V14.01,2013-07-15 22:05:00,
2013-07-15 15:12:00,82.8,18.2,28.23,NE,34,2.7,2.7,9,0.00,,---,0.00,VWS V14.01,2013-07-15 22:12:00,
2013-07-15 15:17:00,82.0,17.7,28.23,North,6,8.3,8.3,9,0.00,,---,0.00,VWS V14.01,2013-07-15 22:17:00,
2013-07-15 15:22:00,80.1,18.6,28.23,NNW,334,3.6,3.6,10,0.00,,---,0.00,VWS V14.01,2013-07-15 22:22:00,
2013-07-15 15:28:00,80.1,18.6,28.23,North,7,2.2,4.0,10,0.00,,---,0.00,VWS V14.01,2013-07-15 22:28:00,
2013-07-15 15:33:00,80.8,16.7,28.23,North,0,3.1,4.0,9,0.00,,---,0.00,VWS V14.01,2013-07-15 22:33:00,
2013-07-15 15:38:00,80.8,16.7,28.23,North,10,2.7,5.4,9,0.00,,---,0.00,VWS V14.01,2013-07-15 22:38:00,
2013-07-15 15:44:00,80.2,18.8,28.23,North,0,5.4,5.4,10,0.00,,---,0.00,VWS V14.01,2013-07-15 22:44:00,
2013-07-15 15:49:00,80.4,18.9,28.23,NW,317,4.0,5.4,10,0.00,,---,0.00,VWS V14.01,2013-07-15 22:49:00,
2013-07-15 15:54:00,80.4,18.9,28.23,NW,307,5.8,5.8,10,0.00,,---,0.00,VWS V14.01,2013-07-15 22:54:00,
2013-07-15 15:59:00,80.1,18.6,28.23,NNW,340,6.3,7.2,10,0.00,,---,0.00,VWS V14.01,2013-07-15 22:59:00,
2013-07-15 16:05:00,79.9,18.5,28.23,North,353,5.8,6.3,10,0.00,,---,0.00,VWS V14.01,2013-07-15 23:05:00,
2013-07-15 16:11:00,79.9,18.5,28.20,WNW,294,3.6,3.6,10,0.00,,---,0.00,VWS V14.01,2013-07-15 23:11:00,
2013-07-15 16:17:00,80.1,18.6,28.20,NNE,23,4.5,4.5,10,0.00,,---,0.00,VWS V14.01,2013-07-15 23:17:00,
2013-07-15 16:23:00,79.5,18.2,28.20,North,2,5.8,5.8,10,0.00,,---,0.00,VWS V14.01,2013-07-15 23:23:00,
2013-07-15 16:28:00,79.3,18.1,28.20,NW,315,4.9,6.3,10,0.00,,---,0.00,VWS V14.01,2013-07-15 23:28:00,
2013-07-15 16:34:00,79.3,18.1,28.20,NW,315,4.9,4.9,10,0.00,,---,0.00,VWS V14.01,2013-07-15 23:34:00,
2013-07-15 16:39:00,79.5,18.2,28.20,North,357,4.0,6.7,10,0.00,,---,0.00,VWS V14.01,2013-07-15 23:39:00,
2013-07-15 16:45:00,79.5,18.2,28.20,North,357,4.0,4.0,10,0.00,,---,0.00,VWS V14.01,2013-07-15 23:45:00,
2013-07-15 16:50:00,79.3,18.1,28.20,North,357,4.0,4.0,10,0.00,,---,0.00,VWS V14.01,2013-07-15 23:50:00,
2013-07-15 16:55:00,79.3,18.1,28.20,NW,312,4.0,4.0,10,0.00,,---,0.00,VWS V14.01,2013-07-15 23:55:00,
2013-07-15 17:01:00,79.3,18.1,28.20,North,0,3.1,3.6,10,0.00,,---,0.00,VWS V14.01,2013-07-16 00:01:00,
2013-07-15 17:07:00,79.3,18.1,28.20,NW,324,3.1,3.1,10,0.00,,---,0.00,VWS V14.01,2013-07-16 00:07:00,
2013-07-15 17:12:00,79.2,18.0,28.20,North,9,5.8,5.8,10,0.00,,---,0.00,VWS V14.01,2013-07-16 00:12:00,
2013-07-15 17:18:00,79.0,17.8,28.20,WNW,299,3.1,4.0,10,0.00,,---,0.00,VWS V14.01,2013-07-16 00:18:00,
2013-07-15 17:24:00,79.0,17.8,28.17,NW,321,5.4,5.4,10,0.00,,---,0.00,VWS V14.01,2013-07-16 00:24:00,
2013-07-15 17:30:00,79.2,18.0,28.17,North,353,4.9,4.9,10,0.00,,---,0.00,VWS V14.01,2013-07-16 00:30:00,
2013-07-15 17:35:00,79.2,18.0,28.17,NNW,345,3.6,4.9,10,0.00,,---,0.00,VWS V14.01,2013-07-16 00:35:00,
2013-07-15 17:40:00,79.3,18.1,28.17,NNW,330,5.4,5.4,10,0.00,,---,0.00,VWS V14.01,2013-07-16 00:40:00,
2013-07-15 17:48:00,79.3,18.1,28.17,NNW,346,3.1,4.0,10,0.00,,---,0.00,VWS V14.01,2013-07-16 00:48:00,
2013-07-15 17:55:00,78.8,17.7,28.17,NNW,327,3.6,4.9,10,0.00,,---,0.00,VWS V14.01,2013-07-16 00:55:00,
2013-07-15 18:01:00,78.6,17.5,28.17,North,9,3.1,4.0,10,0.00,,---,0.00,VWS V14.01,2013-07-16 01:01:00,
2013-07-15 18:07:00,78.4,17.4,28.17,NNW,330,4.0,4.0,10,0.00,,---,0.00,VWS V14.01,2013-07-16 01:07:00,
2013-07-15 18:12:00,78.4,17.4,28.17,NNW,332,2.7,2.7,10,0.00,,---,0.00,VWS V14.01,2013-07-16 01:12:00,
2013-07-15 18:17:00,78.4,17.4,28.17,NNW,345,4.9,5.4,10,0.00,,---,0.00,VWS V14.01,2013-07-16 01:17:00,
2013-07-15 18:23:00,78.4,17.4,28.17,NNW,342,3.1,4.9,10,0.00,,---,0.00,VWS V14.01,2013-07-16 01:23:00,
2013-07-15 18:28:00,78.3,17.3,28.17,NNW,339,3.1,6.3,10,0.00,,---,0.00,VWS V14.01,2013-07-16 01:28:00,
2013-07-15 18:33:00,78.3,17.3,28.17,NNW,337,2.7,3.1,10,0.00,,---,0.00,VWS V14.01,2013-07-16 01:33:00,
2013-07-15 18:38:00,78.3,17.3,28.17,North,350,5.4,5.4,10,0.00,,---,0.00,VWS V14.01,2013-07-16 01:38:00,
2013-07-15 18:44:00,78.3,17.3,28.17,NNW,327,5.4,5.4,10,0.00,,---,0.00,VWS V14.01,2013-07-16 01:44:00,
2013-07-15 18:49:00,77.5,16.7,28.17,North,0,5.8,5.8,10,0.00,,---,0.00,VWS V14.01,2013-07-16 01:49:00,
2013-07-15 18:54:00,77.5,16.7,28.17,North,353,4.0,4.0,10,0.00,,---,0.00,VWS V14.01,2013-07-16 01:54:00,
2013-07-15 19:00:00,77.2,16.5,28.17,NW,318,5.4,5.4,10,0.00,,---,0.00,VWS V14.01,2013-07-16 02:00:00,
2013-07-15 19:05:00,76.8,16.2,28.17,NW,308,3.6,3.6,10,0.00,,---,0.00,VWS V14.01,2013-07-16 02:05:00,
2013-07-15 19:10:00,76.6,16.0,28.17,NNW,337,3.1,4.9,10,0.00,,---,0.00,VWS V14.01,2013-07-16 02:10:00,
2013-07-15 19:16:00,76.5,15.9,28.17,NNW,337,3.1,3.1,10,0.00,,---,0.00,VWS V14.01,2013-07-16 02:16:00,
2013-07-15 19:21:00,76.3,15.8,28.17,NNW,340,4.0,4.0,10,0.00,,---,0.00,VWS V14.01,2013-07-16 02:21:00,
2013-07-15 19:26:00,76.1,15.6,28.17,North,357,3.1,3.1,10,0.00,,---,0.00,VWS V14.01,2013-07-16 02:26:00,
2013-07-15 19:32:00,75.7,15.4,28.17,NNW,343,3.6,3.6,10,0.00,,---,0.00,VWS V14.01,2013-07-16 02:32:00,
2013-07-15 19:37:00,75.6,15.2,28.17,North,353,3.6,3.6,10,0.00,,---,0.00,VWS V14.01,2013-07-16 02:37:00,
2013-07-15 19:42:00,75.4,15.1,28.17,NNW,331,2.7,2.7,10,0.00,,---,0.00,VWS V14.01,2013-07-16 02:42:00,
2013-07-15 19:47:00,75.4,15.1,28.17,North,357,3.1,3.1,10,0.00,,---,0.00,VWS V14.01,2013-07-16 02:47:00,
2013-07-15 19:53:00,75.0,17.0,28.17,NNE,28,2.2,3.1,11,0.00,,---,0.00,VWS V14.01,2013-07-16 02:53:00,
2013-07-15 19:58:00,74.7,16.7,28.17,North,353,3.1,3.1,11,0.00,,---,0.00,VWS V14.01,2013-07-16 02:58:00,
2013-07-15 20:03:00,74.7,16.7,28.17,North,357,0.0,3.1,11,0.00,,---,0.00,VWS V14.01,2013-07-16 03:03:00,
2013-07-15 20:10:00,74.5,16.6,28.17,NNW,340,2.7,4.0,11,0.00,,---,0.00,VWS V14.01,2013-07-16 03:10:00,
2013-07-15 20:15:00,73.8,16.0,28.17,North,353,2.2,2.2,11,0.00,,---,0.00,VWS V14.01,2013-07-16 03:15:00,
2013-07-15 20:20:00,73.8,16.0,28.17,NNW,346,2.7,2.7,11,0.00,,---,0.00,VWS V14.01,2013-07-16 03:20:00,
2013-07-15 20:26:00,73.4,15.7,28.17,NNW,342,0.0,0.0,11,0.00,,---,0.00,VWS V14.01,2013-07-16 03:26:00,
2013-07-15 20:31:00,73.0,15.5,28.17,NNE,20,2.7,2.7,11,0.00,,---,0.00,VWS V14.01,2013-07-16 03:31:00,
2013-07-15 20:37:00,73.0,15.5,28.17,NNW,342,3.1,4.0,11,0.00,,---,0.00,VWS V14.01,2013-07-16 03:37:00,
2013-07-15 20:42:00,72.5,15.0,28.17,NNW,341,2.7,3.1,11,0.00,,---,0.00,VWS V14.01,2013-07-16 03:42:00,
2013-07-15 20:47:00,72.1,14.8,28.17,NNW,341,2.7,2.7,11,0.00,,---,0.00,VWS V14.01,2013-07-16 03:47:00,
2013-07-15 20:52:00,72.0,14.6,28.17,NNE,22,0.0,4.5,11,0.00,,---,0.00,VWS V14.01,2013-07-16 03:52:00,
2013-07-15 20:58:00,71.6,14.4,28.17,NNE,25,0.0,0.0,11,0.00,,---,0.00,VWS V14.01,2013-07-16 03:58:00,
2013-07-15 21:01:00,71.6,14.4,28.17,NNE,25,0.0,0.0,11,0.00,,---,0.00,VWS V14.01,2013-07-16 04:01:00,
2013-07-15 21:02:00,71.6,14.4,28.17,NNE,25,0.0,0.0,11,0.00,,---,0.00,VWS V14.01,2013-07-16 04:02:00,
2013-07-15 21:03:00,71.6,14.4,28.17,NW,325,0.0,2.7,11,0.00,,---,0.00,VWS V14.01,2013-07-16 04:03:00,
2013-07-15 21:06:00,71.1,15.9,28.17,NW,325,0.0,0.0,12,0.00,,---,0.00,VWS V14.01,2013-07-16 04:06:00,
2013-07-15 21:08:00,70.9,15.8,28.17,North,11,3.6,3.6,12,0.00,,---,0.00,VWS V14.01,2013-07-16 04:08:00,
2013-07-15 21:14:00,70.7,15.6,28.17,North,4,3.6,3.6,12,0.00,,---,0.00,VWS V14.01,2013-07-16 04:14:00,
2013-07-15 21:19:00,70.7,15.6,28.17,North,353,3.6,3.6,12,0.00,,---,0.00,VWS V14.01,2013-07-16 04:19:00,
2013-07-15 21:24:00,70.3,15.4,28.17,NNE,26,2.2,2.2,12,0.00,,---,0.00,VWS V14.01,2013-07-16 04:24:00,
2013-07-15 21:30:00,70.3,15.4,28.17,North,353,3.1,3.1,12,0.00,,---,0.00,VWS V14.01,2013-07-16 04:30:00,
2013-07-15 21:35:00,70.3,15.4,28.17,NNW,342,2.2,2.2,12,0.00,,---,0.00,VWS V14.01,2013-07-16 04:35:00,
2013-07-15 21:40:00,70.2,15.2,28.17,North,349,0.0,0.0,12,0.00,,---,0.00,VWS V14.01,2013-07-16 04:40:00,
2013-07-15 21:45:00,69.8,14.9,28.17,North,0,2.7,2.7,12,0.00,,---,0.00,VWS V14.01,2013-07-16 04:45:00,
2013-07-15 21:50:00,69.6,14.8,28.17,NNW,346,0.0,0.0,12,0.00,,---,0.00,VWS V14.01,2013-07-16 04:50:00,
2013-07-15 21:56:00,69.3,14.5,28.17,North,353,2.7,2.7,12,0.00,,---,0.00,VWS V14.01,2013-07-16 04:56:00,
2013-07-15 22:01:00,69.1,14.4,28.17,North,357,0.0,0.0,12,0.00,,---,0.00,VWS V14.01,2013-07-16 05:01:00,
2013-07-15 22:06:00,69.1,14.4,28.17,North,0,3.6,3.6,12,0.00,,---,0.00,VWS V14.01,2013-07-16 05:06:00,
2013-07-15 22:11:00,68.9,14.2,28.17,North,353,0.0,4.0,12,0.00,,---,0.00,VWS V14.01,2013-07-16 05:11:00,
2013-07-15 22:17:00,68.7,14.1,28.17,North,353,0.0,0.0,12,0.00,,---,0.00,VWS V14.01,2013-07-16 05:17:00,
2013-07-15 22:22:00,68.7,14.1,28.17,North,0,0.0,0.0,12,0.00,,---,0.00,VWS V14.01,2013-07-16 05:22:00,
2013-07-15 22:27:00,68.7,14.1,28.17,North,0,0.0,0.0,12,0.00,,---,0.00,VWS V14.01,2013-07-16 05:27:00,
2013-07-15 22:32:00,68.5,13.9,28.17,North,353,0.0,0.0,12,0.00,,---,0.00,VWS V14.01,2013-07-16 05:32:00,
2013-07-15 22:38:00,68.5,13.9,28.17,NNW,332,0.0,0.0,12,0.00,,---,0.00,VWS V14.01,2013-07-16 05:38:00,
2013-07-15 22:43:00,68.5,13.9,28.17,NNW,341,0.0,0.0,12,0.00,,---,0.00,VWS V14.01,2013-07-16 05:43:00,
2013-07-15 22:48:00,68.4,13.8,28.17,NNW,340,0.0,0.0,12,0.00,,---,0.00,VWS V14.01,2013-07-16 05:48:00,
2013-07-15 22:53:00,67.8,13.4,28.17,NNW,340,0.0,0.0,12,0.00,,---,0.00,VWS V14.01,2013-07-16 05:53:00,
2013-07-15 22:59:00,67.3,13.0,28.17,NNW,340,0.0,0.0,12,0.00,,---,0.00,VWS V14.01,2013-07-16 05:59:00,
2013-07-15 23:04:00,67.3,13.0,28.17,NNW,340,0.0,0.0,12,0.00,,---,0.00,VWS V14.01,2013-07-16 06:04:00,
2013-07-15 23:09:00,66.4,17.4,28.17,NNW,328,0.0,0.0,15,0.00,,---,0.00,VWS V14.01,2013-07-16 06:09:00,
2013-07-15 23:14:00,65.5,23.4,28.17,NNW,328,0.0,0.0,20,0.00,,---,0.00,VWS V14.01,2013-07-16 06:14:00,
2013-07-15 23:20:00,65.5,23.4,28.17,NNW,328,0.0,0.0,20,0.00,,---,0.00,VWS V14.01,2013-07-16 06:20:00,
2013-07-15 23:25:00,65.1,26.4,28.17,NNW,328,0.0,0.0,23,0.00,,---,0.00,VWS V14.01,2013-07-16 06:25:00,
2013-07-15 23:30:00,64.8,26.1,28.17,NNW,328,0.0,0.0,23,0.00,,---,0.00,VWS V14.01,2013-07-16 06:30:00,
2013-07-15 23:35:00,64.8,26.1,28.17,NNW,328,0.0,0.0,23,0.00,,---,0.00,VWS V14.01,2013-07-16 06:35:00,
2013-07-15 23:41:00,64.8,26.1,28.14,SW,216,0.0,0.0,23,0.00,,---,0.00,VWS V14.01,2013-07-16 06:41:00,
2013-07-15 23:46:00,64.8,26.1,28.14,SW,216,0.0,0.0,23,0.00,,---,0.00,VWS V14.01,2013-07-16 06:46:00,
2013-07-15 23:51:00,64.2,26.7,28.14,SW,216,0.0,0.0,24,0.00,,---,0.00,VWS V14.01,2013-07-16 06:51:00,
2013-07-15 23:56:00,64.2,26.7,28.17,SW,216,0.0,0.0,24,0.00,,---,0.00,VWS V14.01,2013-07-16 06:56:00,